"Pseudo-MPEC" for P21Vg64

Created 2024 Jul 9 1:22:10 UT using Find_Orb

Click here for an explanation of pseudo-MPECs

 
 Astrometry: 
     P21Vg64  C2024 05 29kT:O\e0f2-2_ICuTJ6!f/a6,(6VPQ4wC@%+6FqwXWG,UBVm+r)7TF52
     P21Vg64  C2024 05 29sn^J\d!%*'_jr+ao=sJrF(mQTPi/#7mMM2O-0l,(QHxn@nhk@hkIF52
     P21Vg64  C2024 06 025CW?ffBW4I^FRkc]#khKC7k8%6XG([6%9/EYQmT`ma,dJCgo28mIF52
     P21Vg64  C2024 06 02]+(t=Oy?[lNKY\sgv@N(*RLqH8c;aGCA=Lwpk2s8hRN;?J5HS@YkF52
     P21Vg64  C2024 06 02KUq2Vq/Qi[(9:VyRD+9$*NL7HMJ:OuIGaYrp0a+8!1,Wd^UoHtPFF52
     P21Vg64* C2024 06 07:yMdm#`p$GOvr98#+957JyOYIG'CIWCc0q(WtB'xCVN;If?T%TE)F52
     P21Vg64  C2024 06 07-tbVuCSE!wbeHDCBAstrometryfJt0[K^ijmHx8R`gnpb8Jam!JXF52
     P21Vg64  C2024 06 07IHUE5ZsEouJ-do3mm?-4g$P%(8rredacted;)+,d:QStJxCE#QdrF52
     P21Vg64 0C2024 06 08+Q?xpMf]+==3/5%ti5SC/#u-x^fpC=6Bg=b%H%B[h1Qm,S7A,Z*cT12
     P21Vg64 0C2024 06 08/7e.O,XsIclickHoke1p3k8HY#SM/,d*lxi/-Oo0[(]*P,up=E].T12
     P21Vg64 3C2024 06 107`h;9o$3/F1xVrX+BB@$Y$.eT$]yk73,o\0oospZKL-^1)+-`/;%T14
     P21Vg64 3C2024 06 10ctb=jT.lA:;$JeMx[.Ia;-LxhW+NfS*tpGdJU0EIIMkwKL_u3T\9T14
     P21Vg64 3C2024 06 10RJp]x67,@fAPP;KyAOMfR8eM%?dq44.g$EsE1O@/q14J,cQri*dTT14
     P21Vg64 3C2024 06 131iMuax0O,QS,JRqSsgDRPH^:V]^@lIc?EJ/y$`Sdd+6qX#3Vc%nWT14
     P21Vg64 3C2024 06 13%%;=y-fcegDtA#4NgR3#Il[6HkM_W,LI36[:!H8PC;q]q+:@wu1yT14
     P21Vg64 3C2024 06 13f1MBYDI]b\MwPNFiXi^waAnF6hC1yvRdIX-]0@?lGCuf.`J+!FSGT14
     P21Vg64  C2024 06 16\uDGu@y9D1'h0!-#H#wt@_ZjD[jw\sNH'aD9b%'LZ4O(k)ZeIsEnF51
     P21Vg64  C2024 06 16Z^;?hvm6wtRugn!n@[\JNSR9WK9KCMc_D\'@Orq$JGkH:8]vbUJpF51
     P21Vg64 1C2024 06 16-M31RV^oo\Rw#[oN_su+kwE)[Al6Fxie)uAgjkJvh'X7/q0_U\!^T12
     P21Vg64 1C2024 06 16qw*bwF`;i%Decki_3J=JZ54?kCUm(MDf5AgO60TZOTy8CQ3mo8'^T12
     P21Vg64  C2024 06 16FOJVv,)@L;9GQ$!e-/ey/.PwUE5]];]3?9cKB*x:ykaQIV[Uii`fF51
     P21Vg64  C2024 06 16E_!\Cq?0jYsp!WHherepW9W.=N$sT`)C)i0(Nedq6^''=Uwr2EhiF51
     P21Vg64 3C2024 06 298QUN0)\J2%-Ui6]/TUEl6/kW\XVJ!I$S$R=a4gMnt\]d@lsOleeLT14
     P21Vg64 3C2024 06 29O1*1C`5D/:QhFn)[[W)09ftY3mbY3(+b9is6PbZ92[IZ?^pvgi-TT14
     P21Vg64 3C2024 06 29#teS5m9Q`(JP2f1iw;lWZPM0q-XbWSdv`yDy*^\.5ntFtcw6/Tp9T14
     P21Vg64 3C2024 07 08\[fordi[CQlPohjH2DRq``t[,Ix]9.kcGMD2qY/K_rnOtZMM+S3kT14
     P21Vg64 3C2024 07 08(HQQG4D/-0-,v$e+[kD-_N'?!TKUB]DHhk\2TseJ%a(EGc6kpu?xT14
     P21Vg64 3C2024 07 08nu,sPNjgM8/rtuM7nlaNSCM-cF#8?U,:bZDjJ1=b@6\;cMdUhlb2T14
     P21Vg64 3C2024 07 08?=?\=vt\RZw::A^d-LM8cCU6ad%-kLw0.:,\w8t,1okOm*_?'nUBT14
     P21Vg64 3C2024 07 0824O8Y!jic*Py'hoUOK@VMg21Q8t`Z`OcR.dBR'M\T$PdSV5sf`R(T14
     P21Vg64 3C2024 07 08f)@:DUM-[]OgVIy1NOu'+dULo$.6bexplanation)P`8+30lHmA6T14

Station data:
(F51) Pan-STARRS 1, Haleakala  (N20.707234 W156.255910)  US/Hawaii.
   Observers J. Bulger, T. Lowe, A. Schultz, M. Willman. Measurers K.
   Chambers, S. Chastel, T. de Boer, L. Denneau, J. Fairlamb, H. Flewelling,
   M. Huber, C.-C. Lin, E. Magnier, Y. Ramanjooloo, R. Wainscoat, R. Weryk.
   1.8-m Ritchey-Chrétien + CCD.
(F52) Pan-STARRS 2, Haleakala  (N20.707382 W156.255910)  US/Hawaii.
   Observers J. Bulger, T. Dukes, T. Lowe, A. Schultz, M. Willman. Measurers
   K. Chambers, S. Chastel, T. de Boer, L. Denneau, J. Fairlamb, H.
   Flewelling, M. Huber, C.-C. Lin, E. Magnier, Y. Ramanjooloo, R. Wainscoat,
   R. Weryk. 1.8-m Ritchey-Chrétien + CCD.
(T12) Mauna Kea-UH/Tholen NEO Follow-Up (2.24-m)  (N19.822991 W155.469434)
   US/Hawaii.  Observers D. J. Tholen, R. Weryk. 2.24-m f/10.1 University of
   Hawaii reflector.
(T14) Mauna Kea-UH/Tholen NEO Follow-Up (CFHT)  (N19.825252 W155.468876)
   US/Hawaii.  Observer R. Weryk. 3.6-m Canada-France-Hawaii Telescope.

Orbital elements:  P21Vg64
   Perihelion 2023 Nov 24.38452 +/- 0.353 TT =  9:13:42 (JD 2460272.88452)
Epoch 2024 Jul  8.0 TT = JDT 2460499.5   Sa: 0.7910   Ne: 0.4733
q   6.85825770 +/- 0.000539         (J2000 ecliptic)             AutoNEOCP
H   13.63 G 0.15                    Peri.   59.08066 +/- 0.029
                                    Node   294.98077 +/- 0.006
e   1.0051534 +/- 0.000821          Incl.  111.59135 +/- 0.0012
29 of 31 observations 2024 May 29-July 8; mean residual 0".16
Residuals in arcseconds: 
240529 F52  .05-  .00     240610 T14  .06-  .17+    240629 T14  .10-  .07+    
240529 F52  .09-  .02-    240610 T14  .08-  .21+    240629 T14  .02-  .03-    
240602 F52  .06+  .11-    240613 T14  .03-  .04+    240629 T14  .10-  .01-    
240602 F52  .22+  .08+    240613 T14  .00   .21+    240708 T14  .11+  .03+    
240602 F52  .18+  .36-    240613 T14  .20-  .23+    240708 T14  .07-  .06-    
240607 F52  .12-  .02-    240616 F51  .32-  .36-    240708 T14  .04-  .02+    
240607 F52  .22-  .13+    240616 F51  .35+  .00     240708 T14  .07+  .02+    
240607 F52( .39+  .74-)   240616 T12  .19+  .25-    240708 T14  .01+  .01+    
240608 T12  .17+  .15-    240616 T12  .18+  .14-    240708 T14  .03+  .01+    
240608 T12  .12-  .09-    240616 F51  .24+  .36-    
240610 T14( .29-  .26+)   240616 F51  .03+  .17-    

Ephemerides (geocentric):
Date (UTC) HH   RA             Dec           delta  r     elong  mag " sig PA
---- --------  ------------   ------------  ------ ------ -----  --- --------
2024 07 09 01  16 18 32.548   +49 47 38.37  6.8042 7.0195  98.1 22.6 .035 170
2024 07 09 02  16 18 30.040   +49 47 33.49  6.8045 7.0196  98.1 22.6 .035 170
2024 07 09 03  16 18 27.534   +49 47 28.59  6.8048 7.0197  98.0 22.6 .036 170
2024 07 09 04  16 18 25.029   +49 47 23.68  6.8052 7.0197  98.0 22.6 .036 170
2024 07 09 05  16 18 22.525   +49 47 18.76  6.8055 7.0198  98.0 22.6 .037 170
2024 07 09 06  16 18 20.023   +49 47 13.82  6.8059 7.0198  98.0 22.6 .037 170
2024 07 09 07  16 18 17.522   +49 47 08.87  6.8062 7.0199  98.0 22.6 .037 170
2024 07 09 08  16 18 15.023   +49 47 03.90  6.8066 7.0199  98.0 22.6 .038 170
2024 07 09 09  16 18 12.525   +49 46 58.92  6.8069 7.0200  97.9 22.6 .038 170
2024 07 09 10  16 18 10.029   +49 46 53.93  6.8073 7.0201  97.9 22.6 .038 170
2024 07 09 11  16 18 07.534   +49 46 48.92  6.8076 7.0201  97.9 22.6 .039 170
2024 07 09 12  16 18 05.040   +49 46 43.90  6.8080 7.0202  97.9 22.6 .039 170
2024 07 09 13  16 18 02.548   +49 46 38.86  6.8083 7.0202  97.9 22.6 .040 170
2024 07 09 14  16 18 00.057   +49 46 33.81  6.8087 7.0203  97.9 22.6 .040 170
2024 07 09 15  16 17 57.567   +49 46 28.75  6.8090 7.0204  97.8 22.6 .040 170
2024 07 09 16  16 17 55.079   +49 46 23.67  6.8094 7.0204  97.8 22.6 .041 169
2024 07 09 17  16 17 52.593   +49 46 18.57  6.8097 7.0205  97.8 22.6 .041 169
2024 07 09 18  16 17 50.108   +49 46 13.47  6.8100 7.0205  97.8 22.6 .041 169
2024 07 09 19  16 17 47.624   +49 46 08.35  6.8104 7.0206  97.8 22.6 .042 169
2024 07 09 20  16 17 45.141   +49 46 03.21  6.8107 7.0206  97.8 22.6 .042 169
2024 07 09 21  16 17 42.660   +49 45 58.06  6.8111 7.0207  97.7 22.6 .043 169
2024 07 09 22  16 17 40.181   +49 45 52.90  6.8114 7.0208  97.7 22.6 .043 169
2024 07 09 23  16 17 37.703   +49 45 47.72  6.8118 7.0208  97.7 22.6 .043 169
2024 07 10 00  16 17 35.226   +49 45 42.53  6.8121 7.0209  97.7 22.6 .044 169
2024 07 10 01  16 17 32.751   +49 45 37.33  6.8125 7.0209  97.7 22.6 .044 169
2024 07 10 02  16 17 30.277   +49 45 32.11  6.8128 7.0210  97.7 22.6 .045 169
2024 07 10 03  16 17 27.804   +49 45 26.88  6.8132 7.0211  97.6 22.6 .045 169
2024 07 10 04  16 17 25.333   +49 45 21.63  6.8135 7.0211  97.6 22.6 .045 169
2024 07 10 05  16 17 22.864   +49 45 16.37  6.8139 7.0212  97.6 22.6 .046 169
2024 07 10 06  16 17 20.396   +49 45 11.10  6.8142 7.0212  97.6 22.6 .046 169
2024 07 10 07  16 17 17.929   +49 45 05.81  6.8146 7.0213  97.6 22.6 .047 169
2024 07 10 08  16 17 15.464   +49 45 00.51  6.8149 7.0213  97.6 22.6 .047 168
2024 07 10 09  16 17 13.000   +49 44 55.19  6.8153 7.0214  97.5 22.6 .047 168
2024 07 10 10  16 17 10.537   +49 44 49.86  6.8156 7.0215  97.5 22.6 .048 168
2024 07 10 11  16 17 08.077   +49 44 44.52  6.8160 7.0215  97.5 22.6 .048 168
2024 07 10 12  16 17 05.617   +49 44 39.16  6.8163 7.0216  97.5 22.6 .048 168
2024 07 10 13  16 17 03.159   +49 44 33.79  6.8167 7.0216  97.5 22.6 .049 168
2024 07 10 14  16 17 00.702   +49 44 28.40  6.8170 7.0217  97.5 22.6 .049 168
2024 07 10 15  16 16 58.247   +49 44 23.01  6.8174 7.0218  97.4 22.6 .050 168
2024 07 10 16  16 16 55.793   +49 44 17.59  6.8177 7.0218  97.4 22.6 .050 168
2024 07 10 17  16 16 53.341   +49 44 12.17  6.8181 7.0219  97.4 22.6 .050 168
2024 07 10 18  16 16 50.890   +49 44 06.73  6.8185 7.0219  97.4 22.6 .051 168
2024 07 10 19  16 16 48.440   +49 44 01.27  6.8188 7.0220  97.4 22.6 .051 168
2024 07 10 20  16 16 45.992   +49 43 55.81  6.8192 7.0220  97.4 22.6 .052 168
2024 07 10 21  16 16 43.546   +49 43 50.33  6.8195 7.0221  97.3 22.6 .052 168
2024 07 10 22  16 16 41.101   +49 43 44.83  6.8199 7.0222  97.3 22.6 .053 168
2024 07 10 23  16 16 38.657   +49 43 39.33  6.8202 7.0222  97.3 22.6 .053 168
2024 07 11 00  16 16 36.215   +49 43 33.80  6.8206 7.0223  97.3 22.6 .053 168